Regional Weather Roundup
Issued by NWS

Home | Current Version | Previous Version | Graphics & Text | Print | Product List | Glossary On
Versions: 1 2 3 4 5 6 7 8 9 10 11 12 13 14 15 16 17 18 19 20 21 22 23 24 25 26 27 28 29 30 31 32 33 34 35 36 37 38 39 40 41 42 43 44 45 46 47 48 49 50
000
ASUS43 KMPX 281710
RWRMN
WEATHER ROUNDUP FOR MINNESOTA
NATIONAL WEATHER SERVICE TWIN CITIES/CHANHASSEN MN
1100 AM CST SUN DEC 28 2014


NOTE: "FAIR" INDICATES FEW OR NO CLOUDS BELOW 12,000 FEET WITH NO
SIGNIFICANT WEATHER AND/OR OBSTRUCTIONS TO VISIBILITY. N/A MEANS
CURRENT SKY AND/OR WEATHER CONDITIONS ARE NOT AVAILABLE.

MNZ060>063-068>070-281800-
   Twin Cities Metro

CITY           SKY/WX    TMP DP  RH WIND       PRES   REMARKS
TWIN CITIES    CLOUDY    15  10  80 CALM      30.18R
ST PAUL        CLOUDY    16  12  84 CALM      30.19R
CRYSTAL        CLOUDY    18  11  74 N3        30.17R
BLAINE         CLOUDY    18  12  79 CALM      30.16R
LAKEVILLE      MOSUNNY   18  10  73 W3        30.16R
EDEN PRAIRIE   CLOUDY    16  12  84 CALM      30.16R
SOUTH ST PAUL  CLOUDY    17  11  78 CALM      30.18R
LAKE ELMO      CLOUDY    16  14  93 CALM      30.18R
$$
MNZ001>005-007-008-013>017-022>024-027-028-281800-
   Northwest Minnesota

CITY           SKY/WX    TMP DP  RH WIND       PRES   REMARKS
BEMIDJI        MOSUNNY   -1  -4  85 N6        30.21R WCI -13
HALLOCK        SUNNY     -8 -15  71 N9        30.33R WCI -25
ROSEAU         SUNNY     -6 -11  77 NW7       30.28S WCI -20
WARROAD        SUNNY     -8 -15  71 W5        30.27R WCI -19
THIEF RVR FALL SUNNY     -6  -9  84 NW6       30.28R WCI -18
CROOKSTON      SUNNY     -6 -11  77 N8        30.33S WCI -21
FOSSTON        SUNNY      0  -8  71 N8        30.25R WCI -15
DETROIT LAKES  SUNNY      5   0  78 NE6       30.22R WCI  -6
MOORHEAD       SUNNY      1  -2  85 N12       30.29R WCI -15
PARK RAPIDS    SUNNY      4  -5  66 N9        30.18R WCI -10
MAHNOMEN       FAIR      -1  -5  81 N8        30.24S WCI -15
$$
MNZ006-009>011-018-025>026-281800-
   North Central Minnesota

CITY           SKY/WX    TMP DP  RH WIND       PRES   REMARKS
BAUDETTE       SUNNY     -7 -14  71 NW9       30.24R WCI -24
FLAG ISLAND    SUNNY     -9 -17  70 NW8       30.25S WCI -26
INTL FALLS     SUNNY     -1  -9  68 W6        30.21R WCI -13
WASKISH        SUNNY      0  -8  71 CALM      30.24R
BIG FORK       MOSUNNY    3  -6  66 W5        30.20S WCI  -6
LONGVILLE      SUNNY      3  -4  72 N5        30.20R WCI  -6
GRAND RAPIDS   SUNNY      0  -6  78 NW8       30.17S WCI -15
CRANE LAKE     SUNNY      0  -9  65 N6        30.22S WCI -12
ORR            SUNNY      1  -8  66 NW8       30.16R WCI -12
COOK           SUNNY      0  -8  71 NW7       30.18S WCI -13
WALKER         FAIR       2  -5  73 N3        30.20S
$$
MNZ012-019>021-037-281800-
   Northeast Minnesota

CITY           SKY/WX    TMP DP  RH WIND       PRES   REMARKS
DULUTH         SUNNY      8  -4  58 N13       30.13R WCI  -8
ELY            SUNNY      0  -8  71 NW7       30.14S WCI -13
HIBBING        SUNNY      2  -7  66 NW12      30.17S WCI -15
EVELETH        MOSUNNY    3  -4  72 NW10G16   30.17R WCI -12
DULUTH HARBOR  SUNNY     14   0  52 CALM      30.22R
TWO HARBORS    SUNNY     12   0  57 NW6       30.13R WCI   3
SILVER BAY     SUNNY     10  -2  56 NW7       30.13R WCI   0
GRAND MARAIS     N/A     10  -3  55 VRB7      30.14S WCI  -1
G MARAIS ARPRT SUNNY      1  -8  66 NW14G21   30.01F WCI -17
$$
MNZ029>031-032-039>041-046>048-054>057-064-281800-
   West Central Minnesota

CITY           SKY/WX    TMP DP  RH WIND       PRES   REMARKS
FERGUS FALLS   PTSUNNY    7  -2  66 N7        30.26R WCI  -5
WHEATON        PTSUNNY    7   3  85 NW14      30.25R WCI -10
MORRIS         CLOUDY    19  16  86 NW13      30.19R WCI   7
ALEXANDRIA     CLOUDY    18  10  71 N9        30.17R WCI   7
ELBOW LAKE     CLOUDY    14   9  80 N12       30.19R WCI   0
WADENA         SUNNY      9   0  66 N7        30.19R WCI  -3
GLENWOOD       CLOUDY    19  16  86 NE12      30.17R WCI   7
APPLETON       CLOUDY    21  18  86 N12       30.20R WCI   9
BENSON         CLOUDY    21  18  86 N8        30.18R WCI  12
ORTONVILLE     CLOUDY    16  10  79 N12       30.20R WCI   3
MADISON        PTSUNNY   21  19  93 N12       30.20R WCI   9
WILLMAR        FAIR      21  18  86 N7        30.17S WCI  13
$$
MNZ033>034-036-042>043-049>051-058-059-281800-
   Central Minnesota

CITY           SKY/WX    TMP DP  RH WIND       PRES   REMARKS
ST CLOUD       CLOUDY    24  13  62 N10       30.17R WCI  14
SAUK CENTRE    CLOUDY    19  11  71 N10       30.17R WCI   7
PAYNESVILLE    CLOUDY    19  17  89 NW9       30.17R WCI   9
AITKIN         SUNNY     14   1  57 NW8       30.17R WCI   3
PINE RIVER     SUNNY      7   1  78 NW6       30.22R WCI  -3
BRAINERD       SUNNY     12   3  67 N10       30.18R WCI  -1
STAPLES        SUNNY     10   3  72 N7        30.18R WCI   0
LONG PRAIRIE   PTSUNNY   16  10  79 N8        30.17R WCI   5
LITTLE FALLS   MOSUNNY   19   9  63 N8        30.18R WCI   9
LITCHFIELD     PTSUNNY   21  21 100 NW5       30.16R WCI  15
BUFFALO        CLOUDY    18  13  81 CALM      30.18R
MAPLE LAKE     CLOUDY    23  20  89 N6        30.18R WCI  15
$$
MNZ037-044-045-052-053-281800-
   East Central Minnesota

CITY           SKY/WX    TMP DP  RH WIND       PRES   REMARKS
PRINCETON      CLOUDY    21  14  73 N8        30.17R WCI  12
MORA           PTSUNNY   19   9  63 N7        30.18R WCI  10
CAMBRIDGE      FLURRIES  23  12  63 N5        30.15R WCI  17
RUSH CITY      CLOUDY    20  11  67 N7        30.17R WCI  11
MOOSE LAKE     SUNNY     14   3  62 N7        30.16R WCI   4
HINCKLEY       FAIR      19  10  68 CALM      30.16S
CLOQUET        SUNNY      9  -4  56 NW14      30.16R WCI  -8
MCGREGOR       SUNNY     12   5  73 N9        30.18R WCI   0
$$
MNZ071>073-080-081-089-090-097-098-281800-
   Southwest Minnesota

CITY           SKY/WX    TMP DP  RH WIND       PRES   REMARKS
MONTEVIDEO     CLOUDY    21  19  93 NE8       30.19R WCI  12
GRANITE FALLS  CLOUDY    21  18  86 NW7       30.19S WCI  12
CANBY          CLOUDY    21  19  90 N12       30.19S FOG     WCI   9
MARSHALL       CLOUDY    19  14  79 N9        30.17R WCI   9
REDWOOD FALLS  MOSUNNY   18  13  80 N6        30.18R WCI  10
OLIVIA         CLOUDY    19  18  93 N5        30.16S FOG     WCI  13
PIPESTONE      FAIR      16  12  86 CALM      30.12R
WINDOM         SUNNY     18  16  93 N3        30.14R
WORTHINGTON    SUNNY     18 -27  12 N7        30.13S WCI   8
JACKSON        SUNNY     19  14  79 N5        30.13S WCI  13
TRACY          CLOUDY    18  15  87 N7        30.17R WCI   9
SLAYTON        MOSUNNY   15  13  92 CALM      30.14R
$$
MNZ065>067-074>077-082>085-091>093-281800-
   South Central Minnesota

CITY           SKY/WX    TMP DP  RH WIND       PRES   REMARKS
MANKATO        SUNNY     12   7  79 NW3       30.17R
NEW ULM        FOG       12  12 100 CALM      30.18R VSB 1
ST JAMES       SUNNY     18  12  79 NW7       30.17S WCI   8
FAIRMONT       SUNNY     19  10  68 N7        30.15R WCI  10
GLENCOE        CLOUDY    20  20  97 NW6       30.16R WCI  13
FARIBAULT      SUNNY     16  10  79 CALM      30.16R
OWATONNA       SUNNY     12   9  85 CALM      30.16R
WASECA         SUNNY     14  10  85 CALM      30.18R
ALBERT LEA     SUNNY     18  12  79 CALM      30.14S
$$
MNZ078>079-086>088-094>096-281800-
   Southeast Minnesota

CITY           SKY/WX    TMP DP  RH WIND       PRES   REMARKS
ROCHESTER      SUNNY     13   9  84 SW6       30.14S WCI   4
RED WING       CLOUDY    16  10  79 W3        30.17R
STANTON        MOSUNNY   15  10  82 CALM      30.16R
DODGE CENTER   MOSUNNY   12  10  92 W6        30.13S WCI   3
WINONA         SUNNY     18  12  79 CALM      30.20S
AUSTIN         SUNNY     10   9  92 CALM      30.14F
PRESTON        SUNNY     15  11  82 W6        30.15S WCI   7
$$
ABBREVIATIONS USED IN REMARKS
   TC - TEMPERATURES IN CELSIUS
  WCI - WIND CHILL INDEX
   HX - HEAT INDEX
  VSB - VISIBILITY
$$



USA.gov is the U.S. government's official web portal to all federal, state and local government web resources and services.